Regional Weather Roundup
Issued by NWS

Home | Current Version | Previous Version | Graphics & Text | Print | Product List | Glossary On
Versions: 1 2 3 4 5 6 7 8 9 10 11 12 13 14 15 16 17 18 19 20 21 22 23 24 25 26 27 28 29 30 31 32 33 34 35 36 37 38 39 40 41 42 43 44 45 46 47 48 49 50
000
ASUS43 KBIS 261210
RWRND

NORTH DAKOTA REGIONAL WEATHER ROUNDUP
NATIONAL WEATHER SERVICE BISMARCK ND
600 AM CST WED NOV 26 2014

NOTE: "FAIR" INDICATES FEW OR NO CLOUDS BELOW 12,000 FEET WITH NO
SIGNIFICANT WEATHER AND/OR OBSTRUCTIONS TO VISIBILITY.


NDZ001>003-009>011-017-261300-
NORTHWEST NORTH DAKOTA

CITY           SKY/WX    TMP DP  RH WIND       PRES   REMARKS
WILLISTON      LGT SNOW  14   9  80 N6        30.27R WCI   5
6HR MIN TEMP:  14; 6HR MAX TEMP:  17; 6HR PCP: TRACE;

MINOT          LGT SNOW   6   1  80 N7        30.29R WCI  -6
MINOT AFB      FLURRIES   5   2  86 NE6       30.30R WCI  -6
$$

NDZ018>021-031>035-040>046-261300-
SOUTHWEST NORTH DAKOTA

CITY           SKY/WX    TMP DP  RH WIND       PRES   REMARKS
BISMARCK       CLOUDY     6   2  83 NE12      30.30R WCI  -9
6HR MIN TEMP:   6; 6HR MAX TEMP:  17;

DICKINSON      CLOUDY    19  15  84 CALM      30.17R
GARRISON         N/A      7   3  84 NE7       30.25S WCI  -5
6HR MIN TEMP:   4; 6HR MAX TEMP:  12;

HETTINGER ARPT CLOUDY    21  17  84 CALM      30.19S
$$

NDZ004>008-012>016-024-026-027-054-261300-
NORTHEAST NORTH DAKOTA

CITY           SKY/WX    TMP DP  RH WIND       PRES   REMARKS
GRAND FORKS    CLOUDY    -2  -8  76 N17       30.34R WCI -23
GRND FRKS AFB  CLOUDY    -3  -7  80 N13       30.34R WCI -21
DEVILS LAKE    CLOUDY     0 -11  60 NE12      30.28R WCI -18
$$

NDZ022-023-025-028>030-036>039-047>053-261300-
SOUTHEAST NORTH DAKOTA

CITY           SKY/WX    TMP DP  RH WIND       PRES   REMARKS
FARGO          CLOUDY     8   3  80 N23       30.26R WCI -13
6HR MIN TEMP:   8; 6HR MAX TEMP:  20; 6HR PCP: TRACE;

JAMESTOWN      CLOUDY     2  -3  80 NW15      30.27R WCI -17
$$



USA.gov is the U.S. government's official web portal to all federal, state and local government web resources and services.